Погода в Круглолесском

Россия / Ставропольский край     44°39′29″N   42°49′00″E
темп.,
°C
ветер,
м/с
пор.,
м/с
влажн.,
%
обл.,
%
осадки,
мм/ч
давл.,
гПа
погр.,
м
6 мая, чт
чт600:00+7вюв34695 0.0 101757
03:00+6вюв311760 0.0 1017232
06:00+8вюв514730 0.0 1016433
09:00+13юв913530 0.0 1015840
12:00+16вюв911477 0.0 10131099
15:00+18вюв784495 0.0 10131256
18:00+15вюв5959100 0.0 1013328
21:00+11вюв41267100 0.0 1015258
7 мая, пт
пт700:00+10юв41168100 0.0 1015265
03:00+9юв2370100 0.0 101562
06:00+9ююв227483 0.0 101673
09:00+15юз22598 0.0 1016432
12:00+20ссз23495 0.0 10161360
15:00+20ссз544618 0.4 10161458
18:00+17сз466225 0.0 1017225
21:00+13з116912 0.1 101910
8 мая, сб
сб800:00+11юв007196 0.0 101810
03:00+11вюв11739 0.0 101810
06:00+11вюв23775 0.0 101756
09:00+17вюв58598 0.0 1016673
12:00+21юв674951 0.0 10141189
15:00+21юв7849100 0.0 10131234
18:00+19вюв5960100 0.0 1013308
21:00+14вюв347420 0.0 101357
9 мая, вс
вс900:00+12юв348117 0.0 101178
03:00+10юв2290100 0.0 101029
06:00+11ююз228581 0.0 100967
09:00+14зсз81284100 0.1 1011870
12:00+15сз5884100 1.1 1010716
15:00+10зсз91492100 1.4 1014823
18:00+6з91593100 3.5 1019981
21:00+5зсз81395100 5.0 10231097
10 мая, пн
пн1000:00+5з8148897 0.1 10221101
03:00+4з7158933 0.1 1023650
06:00+5з613875 0.0 1022738
09:00+10з912655 0.0 10201380
12:00+12з9125264 0.1 10192147
15:00+12з9124877 0.1 10181939
18:00+10з6116783 0.0 10191454
21:00+5юз368684 0.0 1021147